STARLINK-1356, 45564

Orbit data source: Space-Track

STARLINK-1356, 45564 is a payload satellite owned by SpaceX/Seattle (US) in LEO that was launched on Wed, 22 Apr 2020 UTC via an FALCON 9 launch vehicle from the Air Force Eastern Test Range (AFETR). Payload-class satellites include a variety of spacecraft equipped with specific instruments for various scientific and technological missions. These include communications satellites like Starlink; space stations such as the ISS; scientific satellites like the Hubble; Earth observation satellites from companies like Planet Labs, Umbra, and HawkEye 360; GPS; miniature CubeSats for education and research; and military/defense satellites.

Loading next visibility...
Identifier
45564, 2020-025AK
Orbit
LEO
Country
Flag of USUS
Related business
Manufacturer
SpaceX/Seattle
Mission
Partially operational Commercial Communications
Bus & Motor
STARLINK, Unknown motor
Mass
260 kg wet, ~248 kg dry
Launch date (UTC)
2020-04-22 (6 years ago)
Launch vehicle
FALCON 9
Launch site
Air Force Eastern Test Range (AFETR)
Object type
Payload
Rocket body
Debris
Shape & HBR
Box + 1 Pan, 10.1 m
Radar Cross Section
13.562 m², Large (>1 m²)

Expand to show TLE details & history
Last TLE update: 4 hours ago

TLE from 4 hours ago
0 STARLINK-1356
1 45564U 20025AK  26123.82664892  .00076017  00000-0  11810-2 0  9996
2 45564  53.0458 169.6202 0003821 340.4255  19.6607 15.53293180334099
Epoch: 2026-05-03T19:50Z
TLE epoch observation values (Epoch: 2026-05-03T19:50:22.466Z)
Latitude
-0.00003°
Longitude
10.30194°
Altitude
405.574 km
Speed
7.67 km/s
True Right ascension
11h 18m 28s
True Declination
0° 00' 00"
Sunlit
Object was in full shadow at epoch
Visualization orbit readout
Latitude
Unknown
Longitude
Unknown
Altitude
Unknown
Speed
Unknown
Apparent Right ascension
Unknown
Apparent Declination
Unknown
Sunlit
N/A
Visualization observer readout
Local Sidereal Time
07:28:53
Azimuth
Unknown
Elevation
Unknown
Doppler factor
Unknown
Orbital elements
Apogee altitude
409.989 km
Perigee altitude
404.803 km
Semi-major axis
6,785.533 km
Eccentricity
0.00038
Inclination
53.0458°
RAAN
169.6202°
Arg. of periapsis
340.4255°
True anomaly
19.67544°
Mean anomaly
19.6607°
Eccentric anomaly
19.66807°
Mean motion
3.883 °/min
Orbital period
92.71 mins
BSTAR
0.001181
Loading maneuver chart data...
Computing Atmospheric mass density...

Documentation

Showing up to 5 results
|